Content
SEND FEEDBACK

Daily
Averages
Monthly
Summary
Netherlands

MAASTRICHT, NETHERLANDS


Home > Europe > Netherlands
Elevation: 380 feet     Latitude: 50 55N     Longitude: 005 47E

WEATHER
 
SELECT A DAY
Number of Records: 301,282;   Date Range: 7/1/96 - 7/20/14
 
SHARE

PRINT THIS DATA

[ ← Previous Day ]
WEATHER ALMANAC - AUGUST 14, 2013
[ Next Day → ]
[ °C ]   °F
Weather ElementAverageHighLow
Temperature59.6 °F69.8 °F (2:25 pm)49 °F (2:00 am)
Dewpoint49.4 °F51.8 °F (10:25 am)46 °F (2:00 am)
Humidity69.4 %88 % (7:55 am)41 % (2:00 pm)
Barometer30.21 in30.24 in (11:00 am)30.18 in (1:25 am)
Wind Speed6.4 mph12.7 mph (11:55 am)
Weather ElementAverage
Visibility7.8 mi
Wind DirectionSSW (216.9 °)

Weather ElementTotal
Precipitation---
Heating Degree Days5.6 (Base 65)
Growing Degree Days9.4 (Base 50)
Averaged from 54 records on August 14, 2013
WEATHER CONDITIONS BREAKOUT
WIND DIRECTION BREAKOUT
WEATHER BY HOUR - AUGUST 14, 2013
[ °C ]   °F
Local TimeTemperatureDewpointHumidityBarometerVisibilityWind DirectionWind SpeedGust SpeedPrecipitationEventsConditions
12:55 AM53.6 °F46.4 °F77 %30.21 in6.2 miWSW (240°)3.5 mph
1:25 AM50.0 °F46.4 °F87 %30.18 in6.2 miSSW (210°)3.5 mph
1:55 AM50.0 °F46.4 °F87 %30.18 in6.2 miSSW (210°)4.6 mph
2:00 AM49.0 °F46.0 °F83 %30.22 in19.0 miSSW (200°)4.5 mphPartly Cloudy
2:25 AM50.0 °F46.4 °F87 %30.18 in6.2 miSSW (200°)5.8 mph
2:55 AM50.0 °F46.4 °F87 %30.18 in6.2 miSSW (210°)5.8 mph
3:25 AM50.0 °F46.4 °F87 %30.18 in6.2 miSSW (200°)5.8 mph
3:55 AM50.0 °F46.4 °F87 %30.18 in6.2 miSSW (200°)6.9 mph
4:25 AM50.0 °F46.4 °F87 %30.18 in6.2 miSSW (200°)6.9 mph
4:55 AM50.0 °F46.4 °F87 %30.18 in6.2 miSSW (200°)6.9 mph
5:00 AM50.0 °F47.0 °F85 %30.21 in12.0 miSSW (200°)6.7 mph
5:25 AM50.0 °F46.4 °F87 %30.18 in6.2 miSSW (200°)8.1 mph
5:55 AM50.0 °F46.4 °F87 %30.18 in6.2 miSSW (200°)9.2 mph
6:25 AM50.0 °F46.4 °F87 %30.18 in6.2 miSSW (200°)9.2 mph
6:55 AM50.0 °F46.4 °F87 %30.21 in6.2 miSSW (200°)9.2 mph
7:25 AM50.0 °F46.4 °F87 %30.21 in6.2 miSSW (210°)10.4 mph
7:55 AM51.8 °F48.2 °F88 %30.21 in6.2 miSSW (200°)9.2 mph
8:00 AM52.0 °F48.0 °F80 %30.23 in12.0 miSSW (200°)8.9 mphPartly Cloudy
8:25 AM53.6 °F48.2 °F82 %30.21 in6.2 miSSW (200°)11.5 mph
8:55 AM55.4 °F50.0 °F82 %30.21 in6.2 miSSW (210°)9.2 mph
9:25 AM59.0 °F50.0 °F72 %30.21 in6.2 miSW (220°)9.2 mph
9:55 AM60.8 °F50.0 °F68 %30.21 in6.2 miSW (220°)10.4 mph
10:25 AM62.6 °F51.8 °F68 %30.21 in6.2 miSW (230°)10.4 mph
10:55 AM62.6 °F51.8 °F68 %30.21 in6.2 miWSW (240°)9.2 mphScattered Clouds
11:00 AM65.0 °F51.0 °F52 %30.24 in13.0 miSW (230°)8.9 mphScattered Clouds
11:25 AM64.4 °F50.0 °F59 %30.21 in6.2 miWSW (240°)9.2 mphMostly Cloudy
11:55 AM66.2 °F50.0 °F56 %30.21 in6.2 miSW (220°)12.7 mph
12:25 PM68.0 °F51.8 °F56 %30.21 in6.2 miWSW (240°)9.2 mphMostly Cloudy
12:55 PM64.4 °F50.0 °F59 %30.21 in6.2 miWSW (240°)9.2 mphMostly Cloudy
1:25 PM68.0 °F51.8 °F56 %30.21 in6.2 miWSW (250°)8.1 mphScattered Clouds
1:55 PM68.0 °F51.8 °F56 %30.21 in6.2 miWSW (240°)9.2 mphMostly Cloudy
2:00 PM69.0 °F50.0 °F41 %30.23 in19.0 miSW (230°)8.9 mphPartly Cloudy
2:25 PM69.8 °F50.0 °F49 %30.21 in6.2 miSW (230°)9.2 mphOvercast
2:55 PM66.2 °F50.0 °F56 %30.21 in6.2 miWest (270°)8.1 mphPartly Cloudy
3:25 PM66.2 °F51.8 °F60 %30.21 in6.2 miWest (280°)5.8 mph
3:55 PM68.0 °F51.8 °F56 %30.21 in6.2 miWNW (290°)5.8 mph
4:25 PM66.2 °F51.8 °F60 %30.21 in6.2 miNW (310°)3.5 mph
4:55 PM66.2 °F50.0 °F56 %30.21 in6.2 miNorth (350°)4.6 mph
5:00 PM66.0 °F51.0 °F48 %30.22 in22.0 miNorth (350°)4.5 mphMostly Cloudy
5:25 PM66.2 °F51.8 °F60 %30.21 in6.2 miNorth (350°)4.6 mph
5:55 PM68.0 °F50.0 °F52 %30.21 in6.2 miNorth (360°)4.6 mph
6:25 PM66.2 °F51.8 °F60 %30.21 in6.2 miWNW (300°)3.5 mph
6:55 PM66.2 °F51.8 °F60 %30.21 in6.2 miWNW (290°)3.5 mph
7:25 PM68.0 °F51.8 °F56 %30.21 in6.2 miVariable2.3 mph
7:55 PM68.0 °F50.0 °F52 %30.21 in6.2 miVariable2.3 mph
8:00 PM68.0 °F51.0 °F45 %30.22 in22.0 miWNW (290°)2.2 mphPartly Cloudy
8:25 PM66.2 °F51.8 °F60 %30.21 in6.2 miVariable1.2 mph
8:55 PM62.6 °F51.8 °F68 %30.21 in6.2 miWSW (250°)2.3 mph
9:55 PM60.8 °F51.8 °F72 %30.21 in6.2 miSSE (160°)3.5 mph
10:25 PM60.8 °F50.0 °F68 %30.21 in6.2 miVariable2.3 mph
10:55 PM59.0 °F50.0 °F72 %30.21 in6.2 miSouth (190°)2.3 mph
11:00 PM58.0 °F51.0 °F70 %30.23 in19.0 miSouth (170°)2.2 mph
11:25 PM59.0 °F50.0 °F72 %30.21 in6.2 miSouth (180°)2.3 mphPartly Cloudy
11:55 PM57.2 °F50.0 °F77 %30.21 in6.2 miSSW (200°)4.6 mph
Hourly data recorded from EHBK, located miles away from Maastricht, Netherlands







STORIES FROM OUR PARTNERS